LogDate,PM10,SO2,TEMP,WIND,WINDS
3/24/2009 1:00:00 PM,23.35333333,6.056666667,26.80666667,107.5952646,1.07
3/24/2009 2:00:00 PM,4.699090909,17.44545455,26.54181818,290.2095636,1.631818182
3/24/2009 3:00:00 PM,2.04,3.106363636,26.85090909,299.614494,2.5
3/24/2009 4:00:00 PM,58.43818182,2.282727273,25.26454545,300.8406598,2.255454545
3/24/2009 5:00:00 PM,68.03,1.688181818,23.92272727,312.2936069,2.330909091
3/24/2009 6:00:00 PM,87.63454545,2.610909091,20.80727273,318.8729204,1.457272727
3/24/2009 7:00:00 PM,265.31,2.114545455,19.07909091,323.6665527,1.228181818
3/24/2009 8:00:00 PM,181.63,1.959090909,17.92090909,353.8310248,0.888181818
3/24/2009 9:00:00 PM,202.6581818,3.481818182,17.24909091,31.47915132,0.719090909
3/24/2009 10:00:00 PM,280.27,3.123636364,16.54272727,299.876808,0.809090909
3/24/2009 11:00:00 PM,112.24,2.287272727,16.46909091,287.2828525,1.115454545
3/25/2009 12:00:00 AM,61.09636364,1.625454545,16.54090909,221.6614436,1.340909091
3/26/2009 12:00:00 AM,,,,,
3/27/2009 12:00:00 AM,,,,,
3/28/2009 12:00:00 AM,,,,,
3/29/2009 12:00:00 AM,,,,,
3/30/2009 12:00:00 AM,,,,,
3/31/2009 12:00:00 AM,,,,,
4/1/2009 12:00:00 AM,,,,,
4/2/2009 1:00:00 PM,86.58428571,6.694285714,26.35714286,116.5768468,3.142857143
4/2/2009 2:00:00 PM,90.48,6.259090909,26.51818182,134.6588021,3.328181818
4/2/2009 3:00:00 PM,117.7518182,4.836363636,26.06272727,119.6138459,3.560909091
4/2/2009 4:00:00 PM,108.5309091,4.175454545,25.70727273,112.8342844,3.162727273
4/2/2009 5:00:00 PM,91.16,5.01,24.50363636,106.3986982,2.57
4/2/2009 6:00:00 PM,175.51,8.101818182,21.44090909,117.588425,1.631818182
4/2/2009 7:00:00 PM,380.95,9.492727273,19.04636364,158.9284263,1.307272727
4/2/2009 8:00:00 PM,445.58,6.672727273,18.48727273,203.7812393,2.062727273
4/2/2009 9:00:00 PM,378.23,4.399090909,19.00090909,143.4443213,3.151818182
4/2/2009 10:00:00 PM,178.91,4.947272727,17.97090909,108.5276343,4.477272727
4/2/2009 11:00:00 PM,104.76,4.12,17.36181818,105.6870776,3.689090909
4/3/2009 12:00:00 AM,76.80818182,2.671818182,17.22272727,91.12341333,3.868181818
4/4/2009 12:00:00 AM,,,,,
4/5/2009 12:00:00 AM,,,,,
4/6/2009 12:00:00 AM,,,,,
4/7/2009 12:00:00 AM,,,,,
4/8/2009 5:00:00 PM,65.854,30.026,22.53,345.4953217,1.642
4/8/2009 6:00:00 PM,121.09,20.19272727,19.99545455,308.7499078,1.300909091
4/8/2009 7:00:00 PM,185.5863636,7.136363636,17.56090909,261.7696165,0.842727273
4/8/2009 8:00:00 PM,173.47,4.726363636,16.54909091,219.0958132,1.016363636
4/8/2009 9:00:00 PM,176.87,3.978181818,15.92181818,226.3802489,1.381818182
4/8/2009 10:00:00 PM,143.54,3.921818182,16.39727273,227.2883575,1.668181818
4/8/2009 11:00:00 PM,91.16,3.414545455,14.90818182,86.39929091,1.1
4/9/2009 12:00:00 AM,162.3390909,3.218181818,14.13272727,238.8424417,1.416363636
4/9/2009 1:00:00 AM,117.9372727,2.295454545,14.70545455,211.3182123,1.751818182
4/9/2009 2:00:00 AM,63.95,2.066363636,15.1,203.1523715,3.043636364
4/9/2009 3:00:00 AM,48.98,2.844545455,14.58727273,200.9610558,3.471818182
4/9/2009 4:00:00 AM,46.26,14.47090909,13.70818182,187.7227353,1.953636364
4/9/2009 5:00:00 AM,65.99,24.59636364,13.89454545,172.1173455,2.725454545
4/9/2009 6:00:00 AM,146.26,6.634545455,14.49727273,171.3149765,3.407272727
4/9/2009 7:00:00 AM,121.1518182,3.962727273,18.98363636,171.0260635,3.547272727
4/9/2009 8:00:00 AM,124.3045455,3.767272727,22.18909091,157.9700986,4.147272727
4/9/2009 9:00:00 AM,94.56,10.30818182,25.10818182,160.9374033,3.146363636
4/9/2009 10:00:00 AM,80.27,17.10090909,26.24818182,159.778113,2.456363636
4/9/2009 11:00:00 AM,105.44,13.33818182,26.28090909,147.3403688,2.565454545
4/9/2009 12:00:00 PM,59.86,11.67,25.7,177.1098681,2.063636364
4/9/2009 1:00:00 PM,63.95,10.56909091,26.86454545,200.3277442,1.794545455
4/9/2009 2:00:00 PM,54.42,15.33,24.20727273,186.0182619,2.944545455
4/9/2009 3:00:00 PM,101.36,8.533636364,25.01818182,169.9154738,2.255454545
4/9/2009 4:00:00 PM,74.83,9.597272727,23.51272727,175.5017284,1.847272727
4/9/2009 5:00:00 PM,115.4645455,8.849090909,22.00545455,206.4356427,1.627272727
4/9/2009 6:00:00 PM,242.18,5.158181818,20.52181818,229.5252337,1.652727273
4/9/2009 7:00:00 PM,227.21,5.206363636,19.88272727,207.8378991,1.934545455
4/9/2009 8:00:00 PM,208.84,7.792727273,19.46454545,184.1249402,1.996363636
4/9/2009 9:00:00 PM,179.59,9.84,19.08090909,167.9433794,2.729090909
4/9/2009 10:00:00 PM,101.36,10.95909091,19.27,161.768168,3.220909091
4/9/2009 11:00:00 PM,78.23,3.703636364,18.78181818,148.1307558,3.678181818
4/10/2009 12:00:00 AM,65.31,3.790909091,17.81818182,111.9070295,3.790909091
4/10/2009 1:00:00 AM,78.23,5.233636364,16.56272727,109.7873051,4.104545455
4/10/2009 2:00:00 AM,69.39,9.369090909,15.32636364,114.4648174,4.425454545
4/10/2009 3:00:00 AM,51.51454545,3.316363636,15.03272727,116.2382149,3.386363636
4/10/2009 4:00:00 AM,42.86,1.867272727,14.31727273,110.6777253,2.497272727
4/10/2009 5:00:00 AM,41.5,1.644545455,13.70636364,124.4754855,2.183636364
4/10/2009 6:00:00 AM,47.62,1.798181818,13.54272727,117.0848389,2.530909091
4/10/2009 7:00:00 AM,75.51,1.224545455,16.77363636,119.7779782,2.218181818
4/10/2009 8:00:00 AM,139.46,1.83,20.40545455,79.26470647,2.359090909
4/10/2009 9:00:00 AM,115.9590909,20.27727273,22.71090909,63.93321121,3.819090909
4/10/2009 10:00:00 AM,99.62909091,22.12090909,23.96090909,72.31810195,3.639090909
4/10/2009 11:00:00 AM,74.83,18.34909091,25.25272727,73.30475264,2.916363636
4/10/2009 12:00:00 PM,55.78,8.306363636,25.50636364,116.9224254,2.863636364
4/10/2009 1:00:00 PM,48.3,3.557272727,26.00727273,102.5709688,3.025454545
4/10/2009 2:00:00 PM,61.9,8.583636364,25.51909091,110.6573698,2.89
4/10/2009 3:00:00 PM,63.20818182,3.866363636,24.61454545,119.2451341,3.430909091
4/10/2009 4:00:00 PM,74.83,4.352727273,24.92,116.6315333,2.952727273
4/10/2009 5:00:00 PM,98.64,9.710909091,23.38272727,107.764299,2.759090909
4/10/2009 6:00:00 PM,151.7,17.21636364,21.74727273,100.8080951,2.406363636
4/10/2009 7:00:00 PM,176.19,6.74,20.11,90.90618108,3.283636364
4/10/2009 8:00:00 PM,122.45,2.441818182,18.27272727,98.08594388,4.07
4/10/2009 9:00:00 PM,106.0581818,3.932727273,16.81454545,106.1902777,4.14
4/10/2009 10:00:00 PM,73.47,4.236363636,15.66181818,86.02369884,2.883636364
4/10/2009 11:00:00 PM,63.95,6.859090909,14.25727273,58.31054479,1.781818182
4/11/2009 12:00:00 AM,75.51,4.495454545,13.68636364,77.95653495,1.882727273
4/12/2009 12:00:00 AM,,,,,
4/13/2009 12:00:00 AM,,,,,
4/14/2009 2:00:00 PM,86.32818182,2.096,20.85909091,338.4690118,2.456363636
4/14/2009 3:00:00 PM,63.95,,22.48416667,318.2720401,2.4975
4/14/2009 4:00:00 PM,61.65272727,2.362727273,21.14636364,334.7201385,2.178181818
4/14/2009 5:00:00 PM,72.79,2.800909091,19.21636364,342.666755,2.309090909
4/14/2009 6:00:00 PM,144.9,3.896363636,16.86090909,352.0932897,1.605454545
4/14/2009 7:00:00 PM,207.48,3.778181818,15.69636364,355.9143166,1.387272727
4/14/2009 8:00:00 PM,192.52,2.933636364,14.48363636,338.3122961,1.120909091
4/14/2009 9:00:00 PM,151.02,3.766363636,13.95,324.3856857,1.065454545
4/14/2009 10:00:00 PM,88.74909091,3.031818182,13.56090909,312.6938531,1.148181818
4/14/2009 11:00:00 PM,65.31,2.164545455,13.03,277.2475238,0.871818182
4/15/2009 12:00:00 AM,76.19,2.324545455,12.85,244.7310042,0.684545455
4/15/2009 1:00:00 AM,78.91,1.931818182,12.31909091,245.454893,0.740909091
4/15/2009 2:00:00 AM,100,1.860909091,11.65363636,78.96833065,0.683636364
4/15/2009 3:00:00 AM,107.48,2.108181818,11.24,175.2026853,0.973636364
4/15/2009 4:00:00 AM,97.96,3.117272727,11.01090909,64.4639094,1.069090909
4/15/2009 5:00:00 AM,146.94,4.169090909,10.48727273,37.07674263,0.609090909
4/15/2009 6:00:00 AM,214.97,3.928181818,10.55272727,68.56475398,0.842727273
4/15/2009 7:00:00 AM,312.93,3.891818182,15.06818182,338.8271786,0.819090909
4/15/2009 8:00:00 AM,251.02,4.773636364,18.35363636,309.2077523,1.644545455
4/15/2009 9:00:00 AM,103.4,5.994545455,20.95090909,277.4558305,2.572727273
4/15/2009 10:00:00 AM,70.07,3.964545455,23.05272727,283.7091205,2.418181818
4/15/2009 11:00:00 AM,67.35,4.861818182,24.71818182,282.214745,2.148181818
4/15/2009 12:00:00 PM,62.59,9.086363636,25.34545455,209.6927724,1.557272727
4/15/2009 1:00:00 PM,94.56,9.950909091,25.82181818,271.4915074,2.092727273
4/15/2009 2:00:00 PM,97.96,9.777272727,26.18,259.6921283,2.272727273
4/15/2009 3:00:00 PM,100.68,7.88,24.80272727,204.6875181,2.512727273
4/15/2009 4:00:00 PM,107.6654545,7.656363636,25.39909091,198.2571205,2.374545455
4/15/2009 5:00:00 PM,102.5345455,14.87363636,22.54454545,176.8546768,1.931818182
4/15/2009 6:00:00 PM,183.6081818,5.571818182,19,323.9612386,1.476363636
4/15/2009 7:00:00 PM,172.79,4.613636364,17.93454545,302.5875908,1.145454545
4/15/2009 8:00:00 PM,145.58,3.877272727,16.85909091,297.1566632,1.163636364
4/15/2009 9:00:00 PM,123.0681818,3.898181818,16.84727273,265.856972,1.342727273
4/15/2009 10:00:00 PM,123.13,6.226363636,15.51636364,87.48482313,1.222727273
4/15/2009 11:00:00 PM,180.27,4.669090909,13.86363636,50.4161214,0.493636364
4/16/2009 12:00:00 AM,209.52,3.642727273,12.90636364,188.778996,0.549090909
4/17/2009 12:00:00 AM,,,,,
4/18/2009 12:00:00 AM,,,,,
4/19/2009 12:00:00 AM,,,,,
4/20/2009 12:00:00 AM,,,,,
4/21/2009 8:00:00 AM,5.44,4.938,12.906,83.09758905,5.534
4/21/2009 9:00:00 AM,5.563636364,16.26090909,13.62818182,87.4248697,5.112727273
4/21/2009 10:00:00 AM,199.32,29.26454545,14.01454545,83.78248408,5.312727273
4/21/2009 11:00:00 AM,165.4336364,26.05363636,14.69,80.43295182,4.862727273
4/21/2009 12:00:00 PM,206.12,12.22727273,15.27272727,81.38593745,4.673636364
4/21/2009 1:00:00 PM,128.57,5.281818182,15.58272727,81.06499556,3.829090909
4/21/2009 2:00:00 PM,121.09,3.902727273,16.21,80.14724969,4.727272727
4/21/2009 3:00:00 PM,145.58,8.873636364,16.19818182,76.79021861,4.980909091
4/21/2009 4:00:00 PM,178.91,24.63,15.17727273,88.52053774,4.938181818
4/21/2009 5:00:00 PM,188.44,45.17727273,13.91090909,84.35595561,5.348181818
4/21/2009 6:00:00 PM,251.7,41.91727273,12.25363636,87.22364265,5.606363636
4/21/2009 7:00:00 PM,276.0663636,38.75090909,11.55727273,95.42563218,4.908181818
4/21/2009 8:00:00 PM,141.2527273,35.10636364,11.06636364,94.73716227,4.94
4/21/2009 9:00:00 PM,94.99272727,33.08,10.93363636,76.88376123,5.177272727
4/21/2009 10:00:00 PM,76.19,25.78181818,10.08454545,71.08650175,4.404545455
4/21/2009 11:00:00 PM,46.94,14.32181818,9.742727273,70.0867155,3.956363636
4/22/2009 12:00:00 AM,36.60636364,6.153636364,10.05181818,95.65441427,2.822727273
4/22/2009 1:00:00 AM,34.69,6.369090909,10.03818182,84.16560676,3.809090909
4/22/2009 2:00:00 AM,31.84636364,4.211818182,10.02636364,77.98802653,3.394545455
4/22/2009 3:00:00 AM,26.53,3.581818182,9.931818182,69.147934,4.067272727
4/22/2009 4:00:00 AM,23.81,2.108181818,9.95,66.76925736,2.958181818
4/22/2009 5:00:00 AM,19.73,1.799090909,10,68.96731463,2.778181818
4/22/2009 6:00:00 AM,24.61363636,1.767272727,9.971818182,66.0481918,2.611818182
4/22/2009 7:00:00 AM,45.58,1.824545455,10.28090909,68.72480793,2.742727273
4/22/2009 8:00:00 AM,70.68818182,2.239090909,11.33909091,67.3784519,3.701818182
4/22/2009 9:00:00 AM,93.88,2.300909091,13.18454545,43.39364054,4.098181818
4/22/2009 10:00:00 AM,83.67,1.964545455,15.18181818,39.65645162,3.98
4/22/2009 11:00:00 AM,86.39,1.271818182,16.21727273,24.58770628,4.144545455
4/22/2009 12:00:00 PM,92.21,1.303636364,17.25818182,32.51513814,4.265454545
4/22/2009 1:00:00 PM,93.2,1.170909091,18.55,22.54950246,3.504545455
4/22/2009 2:00:00 PM,74.83,1.335454545,19.45181818,9.359250136,3.717272727
4/22/2009 3:00:00 PM,83.67,1.31,19.05545455,18.94693217,3.762727273
4/22/2009 4:00:00 PM,89.8,1.222727273,18.14272727,10.15435934,3.71
4/22/2009 5:00:00 PM,88.44,1.247272727,16.09363636,3.495575924,3.103636364
4/22/2009 6:00:00 PM,119.73,4.471818182,14.40363636,18.18357325,2.097272727
4/22/2009 7:00:00 PM,302.9672727,5.258181818,13.52818182,36.69823068,2.068181818
4/22/2009 8:00:00 PM,226.53,5.999090909,12.56454545,46.65492927,2.596363636
4/22/2009 9:00:00 PM,132.65,2.4,11.58818182,29.37370766,2.562727273
4/22/2009 10:00:00 PM,95.24,1.2,10.95272727,16.84272201,2.83
4/22/2009 11:00:00 PM,51.7,1.409090909,10.34090909,21.90152053,3.138181818
4/23/2009 12:00:00 AM,38.78,1.675454545,9.68,21.1142851,2.588181818
4/23/2009 1:00:00 AM,,,,,
4/24/2009 10:00:00 AM,,1.22,20.6,350.76,2.68
4/24/2009 11:00:00 AM,,,20.99,336.24,3.01
4/24/2009 12:00:00 PM,97.26727273,2.022727273,22.91272727,322.999511,2.967272727
4/24/2009 1:00:00 PM,73.46909091,1.804545455,22.82363636,319.7242557,3.503636364
4/24/2009 2:00:00 PM,68.03,1.583636364,21.89090909,314.7555518,3.241818182
4/24/2009 3:00:00 PM,60.10727273,1.397272727,21.34636364,316.9510533,3.075454545
4/24/2009 4:00:00 PM,66.66909091,1.273636364,21.27272727,309.5193429,2.750909091
4/24/2009 5:00:00 PM,99.32,1.249090909,19.57545455,324.6092039,2.615454545
4/24/2009 6:00:00 PM,120.41,1.719090909,16.88545455,321.3894664,1.585454545
4/24/2009 7:00:00 PM,184.35,1.865454545,15.25636364,343.9496626,0.919090909
4/24/2009 8:00:00 PM,317.0081818,2.341818182,14.19,36.41726941,0.786363636
4/24/2009 9:00:00 PM,554.4172727,2.077272727,14.21727273,70.01868171,0.600909091
4/24/2009 10:00:00 PM,319.73,1.841818182,13.94090909,9.603022557,0.94
4/24/2009 11:00:00 PM,227.1481818,2.214545455,13.68454545,89.97759864,1.000909091
4/25/2009 12:00:00 AM,215.6427273,2.628181818,12.79090909,86.81127464,0.853636364
4/26/2009 12:00:00 AM,,,,,
4/27/2009 12:00:00 AM,,,,,
4/28/2009 12:00:00 AM,,,,,
4/29/2009 8:00:00 AM,5.44,5.012857143,22.64428571,16.8007452,1.101428571
4/29/2009 9:00:00 AM,5.44,3.110909091,23.51636364,359.9114168,1.888181818
4/29/2009 10:00:00 AM,128.5054545,2.461818182,25.75181818,326.0409392,2.492727273
4/29/2009 11:00:00 AM,83.66,1.951818182,26.52545455,333.7888763,2.735454545
4/29/2009 12:00:00 PM,53.05181818,1.885454545,26.68454545,322.1812765,2.755454545
4/29/2009 1:00:00 PM,42.85,1.892727273,27.63727273,292.670427,2.348181818
4/29/2009 2:00:00 PM,44.89,1.879090909,27.80909091,284.8718821,2.69
4/29/2009 3:00:00 PM,47.61,1.705454545,27.54363636,260.915346,2.427272727
4/29/2009 4:00:00 PM,59.17909091,1.341818182,25.65545455,298.7989189,2.658181818
4/29/2009 5:00:00 PM,78.22090909,1.772727273,22.01545455,295.1799995,2.502727273
4/29/2009 6:00:00 PM,150.3272727,1.915454545,18.74,314.9489143,1.471818182
4/29/2009 7:00:00 PM,185.5163636,3.104545455,17.62090909,226.4423208,1.030909091
4/29/2009 8:00:00 PM,287.0609091,2.857272727,16.69181818,280.9791128,1.036363636
4/29/2009 9:00:00 PM,182.2381818,3.036363636,15.91454545,220.7720686,1.409090909
4/29/2009 10:00:00 PM,191.8190909,2.71,15.35909091,158.1455809,1.581818182
4/29/2009 11:00:00 PM,225.8263636,2.817272727,13.59909091,175.2039386,1.495454545
4/30/2009 12:00:00 AM,226.1363636,2.521818182,13.60818182,201.969787,1.057272727
4/30/2009 1:00:00 AM,135.3581818,2.231818182,13.20636364,93.67214787,0.900909091
4/30/2009 2:00:00 AM,128.5618182,1.959090909,11.65818182,94.36380243,1.031818182
4/30/2009 3:00:00 AM,121.7563636,2.683636364,11.36454545,115.6694702,0.714545455
4/30/2009 4:00:00 AM,129.2381818,3.200909091,11.15636364,94.30125381,1.06
4/30/2009 5:00:00 AM,90.40636364,3.884545455,11.08818182,127.3330684,0.8
4/30/2009 6:00:00 AM,286.7381818,3.940909091,11.44,106.6615957,1.113636364
4/30/2009 7:00:00 AM,336.0236364,5.491818182,17.43818182,61.80893182,0.980909091
4/30/2009 8:00:00 AM,516.3454545,5.906363636,21.31181818,7.979842838,1.328181818
4/30/2009 9:00:00 AM,307.99,2.954545455,23.39818182,354.6683405,2.256363636
4/30/2009 10:00:00 AM,99.98090909,3.548181818,25.38,302.7074255,4.347272727
4/30/2009 11:00:00 AM,147.5918182,4.203636364,25.83272727,296.8154302,5.260909091
4/30/2009 12:00:00 PM,162.1890909,3.696363636,25.60909091,305.8756129,4.516363636
4/30/2009 1:00:00 PM,74.88181818,3.710909091,26.12,300.0590645,5.137272727
4/30/2009 2:00:00 PM,118.6590909,3.771818182,25.78454545,289.5187323,5.299090909
4/30/2009 3:00:00 PM,127.8709091,3.337272727,25.69545455,291.915683,4.740909091
4/30/2009 4:00:00 PM,111.55,2.646363636,23.96,305.4264837,4.219090909
4/30/2009 5:00:00 PM,93.86909091,2.651818182,21.51909091,323.3743413,2.28
4/30/2009 6:00:00 PM,154.4672727,3.362727273,18.80454545,307.5593817,1.744545455
4/30/2009 7:00:00 PM,221.0718182,4.595454545,17.86,172.1999671,1.879090909
4/30/2009 8:00:00 PM,407.4527273,4.911818182,17.15636364,170.1465985,1.994545455
4/30/2009 9:00:00 PM,323.1072727,5.831818182,16.30545455,183.1448433,1.849090909
4/30/2009 10:00:00 PM,310.7954545,4.966363636,15.46909091,170.6598922,1.503636364
4/30/2009 11:00:00 PM,237.2885714,4.062857143,14.10714286,175.3020555,1.115714286
5/1/2009 12:00:00 AM,253.0281818,3.296363636,14.39636364,175.6073365,1.504545455
5/2/2009 12:00:00 AM,,,,,
5/3/2009 12:00:00 AM,,,,,
5/4/2009 12:00:00 AM,,,,,
5/5/2009 12:00:00 AM,,,,,
5/6/2009 12:00:00 AM,,,,,
5/7/2009 12:00:00 PM,30.50714286,,22.68285714,325.3264387,4.337142857
5/7/2009 1:00:00 PM,34.00909091,1.468,23.52545455,309.5685319,4.472727273
5/7/2009 2:00:00 PM,26.52909091,1.497272727,23.52545455,318.991315,4.513636364
5/7/2009 3:00:00 PM,36.05,1.335454545,23.49636364,317.1719149,4.396363636
5/7/2009 4:00:00 PM,30.79545455,1.379090909,18.64545455,258.0281404,5.380909091
5/7/2009 5:00:00 PM,73.46,1.236363636,12.88454545,296.1760167,4.89
5/7/2009 6:00:00 PM,17.68,1.818181818,13.61090909,246.1921373,1.95
5/7/2009 7:00:00 PM,68.02,3.084545455,14.26,204.6340098,2.051818182
5/7/2009 8:00:00 PM,112.1690909,2.628181818,14.29727273,191.3604058,2.059090909
5/7/2009 9:00:00 PM,98.62090909,2.163636364,13.96,185.3356194,1.720909091
5/7/2009 10:00:00 PM,84.34,1.861818182,13.50636364,178.1225384,1.776363636
5/7/2009 11:00:00 PM,70.24545455,1.706363636,11.77090909,292.8846082,0.866363636
5/8/2009 12:00:00 AM,86.93636364,1.594545455,11.18181818,181.7297741,1.521818182
5/8/2009 1:00:00 AM,61.21,1.476363636,10.01363636,164.4205542,0.724545455
5/8/2009 2:00:00 AM,61.89,1.613636364,10.00272727,183.7241845,1.998181818
5/8/2009 3:00:00 AM,30.61,2.008181818,11.15727273,152.3388252,2.383636364
5/8/2009 4:00:00 AM,41.49,2.521818182,9.963636364,154.1452192,1.980909091
5/8/2009 5:00:00 AM,31.29,2.547272727,9.186363636,143.4671804,1.530909091
5/8/2009 6:00:00 AM,54.42,1.88,8.409090909,151.38745,3.078181818
5/8/2009 7:00:00 AM,89.11727273,3.267272727,10.20272727,131.401518,1.414545455
5/8/2009 8:00:00 AM,134.3190909,5.565454545,12.62727273,119.7055497,2.488181818
5/8/2009 9:00:00 AM,106.6,5.763636364,14.93454545,78.23467833,2.192727273
5/8/2009 10:00:00 AM,93.18,4.462727273,17.81454545,67.88291372,1.731818182
5/8/2009 11:00:00 AM,61.21,4.030909091,21.50363636,1.100009185,1.345454545
5/8/2009 12:00:00 PM,51.69,3.480909091,22.48636364,23.20266944,1.412727273
5/8/2009 1:00:00 PM,41.49,2.479090909,22.42909091,276.6560874,1.958181818
5/8/2009 2:00:00 PM,27.89,2.052727273,23.54545455,273.2049354,2.278181818
5/8/2009 3:00:00 PM,23.81,2.367272727,22.73363636,260.3781704,1.86
5/8/2009 4:00:00 PM,38.77,2.635454545,21.64363636,256.2244113,1.769090909
5/8/2009 5:00:00 PM,50.33,3.225454545,18.61363636,237.4044763,1.367272727
5/8/2009 6:00:00 PM,155.08,4.012727273,15.89,179.0243412,1.334545455
5/8/2009 7:00:00 PM,314.2372727,5.071818182,15.52545455,153.7849954,3.103636364
5/8/2009 8:00:00 PM,195.5190909,5.429090909,14.52818182,158.8959945,3.672727273
5/8/2009 9:00:00 PM,142.0909091,6.307272727,14.2,138.4003331,3.864545455
5/8/2009 10:00:00 PM,105.2972727,6.380909091,13.09727273,117.0760038,4.073636364
5/8/2009 11:00:00 PM,76.98363636,3.986363636,11.47454545,102.3945122,3.509090909
5/9/2009 12:00:00 AM,58.49090909,3.913636364,10.68636364,106.8008331,4.204545455
5/9/2009 1:00:00 AM,57.00727273,3.949090909,10.42727273,105.153236,4.086363636
5/9/2009 2:00:00 AM,44.21,3.962727273,10.27545455,104.3619029,3.934545455
5/9/2009 3:00:00 AM,35.37,3.394545455,9.987272727,100.9934375,3.217272727
5/9/2009 4:00:00 AM,35.98818182,2.527272727,10.28,94.94854977,3.17
5/9/2009 5:00:00 AM,42.85,2.416363636,10.28818182,80.60892228,2.500909091
5/9/2009 6:00:00 AM,59.17545455,2.632727273,10.53909091,93.11734547,2.552727273
5/9/2009 7:00:00 AM,67.27818182,3.027272727,10.95909091,107.8152815,2.733636364
5/9/2009 8:00:00 AM,,2.92,11.72,78.41,1.74
5/9/2009 9:00:00 AM,,2.65,11.88,107.86,2.62
5/9/2009 10:00:00 AM,,1.97,11.53,104.31,1.56
5/9/2009 11:00:00 AM,92.51636364,2.392727273,15.96818182,75.79851555,2.665454545
5/9/2009 12:00:00 PM,25.10818182,2.243636364,15.79272727,73.66373803,3.936363636
5/9/2009 1:00:00 PM,29.93,2.139090909,17.03,93.27250144,3.277272727
5/9/2009 2:00:00 PM,54.65727273,1.838181818,16.51545455,81.65045657,3.361818182
5/9/2009 3:00:00 PM,46.86818182,1.859090909,15.48454545,55.76010373,2.640909091
5/9/2009 4:00:00 PM,44.21,1.903636364,14.71454545,22.97985486,2.28
5/9/2009 5:00:00 PM,70.74,1.934545455,13.01454545,13.83444894,1.890909091
5/9/2009 6:00:00 PM,154.3990909,2.403636364,10.93545455,32.09852671,1.020909091
5/9/2009 7:00:00 PM,244.8636364,2.818181818,9.81,119.210997,0.939090909
5/9/2009 8:00:00 PM,399.9572727,4.409090909,9.655454545,95.11318127,1.4
5/9/2009 9:00:00 PM,455.75,3.83,9.535454545,115.3351097,2.095454545
5/9/2009 10:00:00 PM,153.7336364,3.427272727,9.231818182,113.8782992,2.09
5/9/2009 11:00:00 PM,116.3218182,2.764545455,9.130909091,117.4967436,1.865454545
5/10/2009 12:00:00 AM,64.62181818,4.050909091,9.151818182,116.4935219,2.652727273
5/11/2009 12:00:00 AM,,,,,
5/12/2009 12:00:00 AM,,,,,
5/13/2009 12:00:00 AM,,,,,
5/14/2009 1:00:00 PM,,2.7025,19.2175,25.2993253,2.995
5/14/2009 2:00:00 PM,,2.236363636,20.21909091,350.166004,2.906363636
5/14/2009 3:00:00 PM,,2.039090909,20.31090909,336.4607283,2.886363636
5/14/2009 4:00:00 PM,,1.890909091,18.91545455,348.7973928,2.258181818
5/14/2009 5:00:00 PM,,2.281818182,15.87909091,4.284719739,1.695454545
5/14/2009 6:00:00 PM,,2.944545455,13.40090909,8.648251836,1.24
5/14/2009 7:00:00 PM,,4.846363636,12.13181818,74.30325591,0.945454545
5/14/2009 8:00:00 PM,,5.99,11.37,68.17,0.56
5/14/2009 9:00:00 PM,,4.35,11.2,91.97,1.29
5/14/2009 10:00:00 PM,,4.01,10.04,115.48,1.24
5/14/2009 11:00:00 PM,,4.080909091,9.678181818,99.03590509,1.361818182
5/15/2009 12:00:00 AM,,3.54,9.56,80,1.64
5/15/2009 1:00:00 AM,,4.08,8.6,51.02,0.79
5/15/2009 2:00:00 AM,,2.362727273,7.575454545,39.31105288,0.791818182
5/15/2009 3:00:00 AM,,2.18,7.72,92.59,1.13
5/15/2009 4:00:00 AM,,3.994545455,7.605454545,92.04299009,0.754545455
5/15/2009 5:00:00 AM,,3.432727273,7.903636364,102.6471287,0.750909091
5/15/2009 6:00:00 AM,,3.483636364,7.552727273,108.4924943,1.566363636
5/15/2009 7:00:00 AM,,3.279090909,8.675454545,52.2558679,0.868181818
5/15/2009 8:00:00 AM,,3.331818182,13.59818182,57.88674473,1.867142857
5/15/2009 9:00:00 AM,,,,,
5/16/2009 11:00:00 AM,5.44,,17.12,329.61,3.94
5/16/2009 12:00:00 PM,5.501818182,,17.76454545,315.043244,4.226363636
5/16/2009 1:00:00 PM,133.32,,18.77818182,309.8740012,5.06
5/16/2009 2:00:00 PM,141.4636364,3.936666667,18.81818182,303.8750475,5.297272727
5/16/2009 3:00:00 PM,108.8109091,3.239090909,19.51909091,318.7723904,2.685454545
5/16/2009 4:00:00 PM,55.76727273,2.551818182,18.51454545,333.8862336,2.955454545
5/16/2009 5:00:00 PM,61.20909091,2.552727273,16.07090909,328.9769435,2.33
5/16/2009 6:00:00 PM,133.9781818,3.24,14.67545455,340.90733,2.361818182
5/16/2009 7:00:00 PM,221.7172727,3.986363636,13.29454545,340.5287922,1.619090909
5/16/2009 8:00:00 PM,243.4781818,3.906363636,12.19727273,,1.42
5/16/2009 9:00:00 PM,272.7127273,4.253636364,11.01454545,,1.245454545
5/16/2009 10:00:00 PM,432.5227273,4.172727273,11.35181818,,1.351818182
5/16/2009 11:00:00 PM,250.14,4.004545455,10.78909091,,1.608181818
5/17/2009 12:00:00 AM,170.6936364,3.937272727,11.05454545,,1.509090909
5/18/2009 12:00:00 AM,,,,,
5/19/2009 12:00:00 PM,,,,,
5/20/2009 12:00:00 PM,,,,,
5/20/2009 1:00:00 PM,,,,,
5/20/2009 2:00:00 PM,,4.066363636,,,
5/20/2009 3:00:00 PM,,3.881818182,,,